This is the latest recevied weather packets stored in our database for station/object OE3APM-13. If no packets are shown the sender has not sent any weather packets the latest 1 day(s).
| Time | Temp. | Humidity | Pressure | Rain* | Wind** | Luminosity | Snow |
|---|---|---|---|---|---|---|---|
| 1777986715 | 23.89° C | 40% | 1006.1 hPa | 0 mm | 3.58 m/s, 111° | 364 W/m² | - |
| 1777986406 | 23.89° C | 41% | 1006.1 hPa | 0 mm | 3.13 m/s, 111° | 332 W/m² | - |
| 1777986101 | 23.89° C | 40% | 1006.1 hPa | 0 mm | 2.24 m/s, 84° | 265 W/m² | - |
| 1777985801 | 23.89° C | 41% | 1006.2 hPa | 0 mm | 2.68 m/s, 91° | 246 W/m² | - |
| 1777985502 | 23.89° C | 40% | 1006.2 hPa | 0 mm | 2.24 m/s, 136° | 241 W/m² | - |
| 1777985203 | 23.89° C | 39% | 1006.4 hPa | 0 mm | 1.79 m/s, 25° | 237 W/m² | - |
| 1777984900 | 23.89° C | 38% | 1006.4 hPa | 0 mm | 1.79 m/s, 140° | 236 W/m² | - |
| 1777984599 | 23.89° C | 38% | 1006.5 hPa | 0 mm | 2.68 m/s, 117° | 225 W/m² | - |
| 1777984301 | 24.44° C | 36% | 1006.5 hPa | 0 mm | 3.58 m/s, 61° | 221 W/m² | - |
| 1777983999 | 24.44° C | 36% | 1006.4 hPa | 0 mm | 3.58 m/s, 143° | 250 W/m² | - |
| 1777983699 | 24.44° C | 38% | 1006.5 hPa | 0 mm | 3.13 m/s, 100° | 900 W/m² | - |
| 1777983397 | 25° C | 36% | 1006.6 hPa | 0 mm | 3.58 m/s, 112° | 207 W/m² | - |
| 1777983098 | 25.56° C | 35% | 1006.4 hPa | 0 mm | 3.58 m/s, 161° | 185 W/m² | - |
| 1777982796 | 26.11° C | 34% | 1006.5 hPa | 0 mm | 3.13 m/s, 144° | 155 W/m² | - |
| 1777982495 | 26.11° C | 36% | 1006.5 hPa | 0 mm | 3.58 m/s, 107° | 833 W/m² | - |
| 1777982195 | 26.11° C | 37% | 1006.5 hPa | 0 mm | 4.02 m/s, 97° | 800 W/m² | - |
| 1777981896 | 26.11° C | 35% | 1006.5 hPa | 0 mm | 3.13 m/s, 145° | 812 W/m² | - |
| 1777981596 | 25.56° C | 37% | 1006.5 hPa | 0 mm | 3.13 m/s, 16° | 800 W/m² | - |
| 1777981292 | 25.56° C | 35% | 1006.6 hPa | 0 mm | 2.68 m/s, 74° | 770 W/m² | - |
| 1777980992 | 26.11° C | 36% | 1006.6 hPa | 0 mm | 2.68 m/s, 98° | 758 W/m² | - |
| 1777980688 | 26.11° C | 38% | 1006.5 hPa | 0 mm | 3.13 m/s, 34° | 817 W/m² | - |
| 1777980387 | 26.11° C | 34% | 1006.6 hPa | 0 mm | 3.13 m/s, 129° | 812 W/m² | - |
| 1777980087 | 26.11° C | 37% | 1006.6 hPa | 0 mm | 2.68 m/s, 117° | 821 W/m² | - |
| 1777979788 | 26.11° C | 36% | 1006.7 hPa | 0 mm | 2.68 m/s, 143° | 821 W/m² | - |
| 1777979487 | 26.11° C | 34% | 1006.7 hPa | 0 mm | 2.68 m/s, 127° | 821 W/m² | - |
* Rain latest hour (hover to see other rain measurements)
** Current wind speed in m/s (hover to see current wind gust speed)